Regional Weather Roundup
Issued by NWS Sioux Falls, SD

Home | Current Version | Previous Version | Graphics & Text | Print | Product List | Glossary Off
Versions: 1 2 3 4 5 6 7 8 9 10 11 12 13 14 15 16 17 18 19 20 21 22 23 24 25 26 27 28 29 30 31 32 33 34 35 36 37 38 39 40 41 42 43 44 45 46 47 48 49 50

000
ASUS43 KFSD 010502
RWRFSD

WEATHER ROUNDUP FOR SE SOUTH DAKOTA/SW MINNESOTA/NW IOWA
NATIONAL WEATHER SERVICE SIOUX FALLS SD
1200 AM CDT MON SEP 01 2014

NOTE: "FAIR" INDICATES FEW OR NO CLOUDS BELOW 12,000 FEET WITH NO
SIGNIFICANT WEATHER AND OR OBSTRUCTIONS TO VISIBILITY.


SDZ038>040-050-052>070-010600-
SOUTHEAST SOUTH DAKOTA

CITY           SKY/WX    TMP DP  RH WIND       PRES   REMARKS
CHAMBERLAIN    DRIZZLE   63  61  95 W8        29.75R
HURON          CLOUDY    62  60  93 SW3       29.70R
MADISON        CLOUDY    59  59 100 NW6       29.71S
MITCHELL       CLOUDY    64  61  90 W8        29.73R
SIOUX FALLS    MOCLDY    61  59  93 NW5       29.70R
WINNER         CLOUDY    61  58  90 W8        29.79R
YANKTON        MOCLDY    63  59  88 NW8       29.72R
$$

MNZ071-072-080-081-089-090-097-098-010600-
SOUTHWEST MINNESOTA

CITY           SKY/WX    TMP DP  RH WIND       PRES   REMARKS
FAIRMONT       CLOUDY    63  59  88 S3        29.68S
JACKSON        CLOUDY    64  63  94 S6        29.68S
LUVERNE        CLOUDY    64  63  94 CALM      29.70S
MARSHALL       CLOUDY    64  63  94 W5        29.68R
MONTEVIDEO     CLOUDY    66  64  94 NW6       29.68S
PIPESTONE      MOCLDY    64  61  88 CALM      29.70S
REDWOOD FALLS  CLOUDY    66  65  96 S8        29.66F
TRACY          CLOUDY    66  64  94 CALM      29.69F
WINDOM         CLOUDY    66  64  94 SW3       29.69R
WORTHINGTON    CLOUDY    64  63  94 NW5       29.68F
$$

IAZ001>003-012>014-020>022-031-032-NEZ013-014-SDZ071-010600-
NORTHWEST IOWA

CITY           SKY/WX    TMP DP  RH WIND       PRES   REMARKS
CHEROKEE       CLOUDY    62  62 100 CALM      29.69R
DENISON        CLOUDY    66  66 100 SE5       29.66S
ESTHERVILLE    CLOUDY    62  62 100 S5        29.68S
LE MARS        CLOUDY    64  63  94 CALM      29.67R
ORANGE CITY    CLOUDY    64  63  94 CALM      29.69R
SHELDON        CLOUDY    63  63 100 VRB5      29.67R
SIOUX CITY     CLOUDY    65  63  93 NW5       29.66R
SPENCER        CLOUDY    64  62  93 E5        29.67S
STORM LAKE     CLOUDY    63  63 100 CALM      29.68S
$$

ABBREVIATIONS USED IN REMARKS
   TC - TEMPERATURE IN CELSIUS
  WCI - WIND CHILL INDEX
   HX - HEAT INDEX
  VSB - VISIBILITY



USA.gov is the U.S. government's official web portal to all federal, state and local government web resources and services.